This demonstration page uses our WeatherBlox Daily Observations layout. Learn more.

Hourly Observations for April 15, 2015

Temp ( °F °C ) Dew Point ( °F °C ) Humidity (%) Winds ( mph kmh ) Pressure ( in mb ) Visibility ( mi km ) Precip ( " mm )
12:15 am 00:15 Clear 45 7.2 27 -2.7 50 50 SE 10 17 30.03 1017 10 16.0934 0 0
12:35 am 00:35 Clear 46 7.6 28 -2.1 51 51 SE 13 20 30.03 1017 10 16.0934 0 0
12:55 am 00:55 Clear 46 7.6 29 -1.9 51 51 SE 14 22 30.03 1017 10 16.0934 0 0
1:15 am 01:15 Clear 45 7 29 -1.7 54 54 SE 10 17 30.03 1017 10 16.0934 0 0
1:35 am 01:35 Clear 43 6.1 29 -1.6 58 58 SE 10 17 30.03 1017 10 16.0934 0 0
1:55 am 01:55 Clear 42 5.5 29 -1.6 61 61 SE 10 17 30.03 1017 10 16.0934 0 0
2:15 am 02:15 Clear 41 5.2 29 -1.5 62 62 SE 12 19 30.06 1018 10 16.0934 0 0
2:35 am 02:35 Clear 41 5.1 30 -1.1 65 65 SE 9 15 30.06 1018 10 16.0934 0 0
2:55 am 02:55 Clear 40 4.5 30 -1.3 66 66 SSE 8 13 30.03 1017 10 16.0934 0 0
3:15 am 03:15 Clear 39 3.9 29 -1.5 68 68 SSE 8 13 30.03 1017 10 16.0934 0 0
3:35 am 03:35 Clear 37 3 29 -1.9 71 71 SE 9 15 30.03 1017 10 16.0934 0 0
3:55 am 03:55 Clear 39 3.7 30 -1 72 72 SE 10 17 30.03 1017 10 16.0934 0 0
4:15 am 04:15 Clear 38 3.2 29 -1.4 72 72 SE 7 11 30.03 1017 10 16.0934 0 0
4:35 am 04:35 Clear 37 2.7 29 -1.4 75 75 SE 7 11 30 1016 10 16.0934 0 0
4:55 am 04:55 Clear 38 3.1 30 -1 75 75 SE 9 15 30 1016 10 16.0934 0 0
5:15 am 05:15 Clear 38 3.3 31 -0.7 75 75 SE 9 15 30 1016 10 16.0934 0 0
5:35 am 05:35 Clear 39 3.7 31 -0.5 74 74 SE 8 13 30 1016 10 16.0934 0 0
5:55 am 05:55 Clear 38 3.5 31 -0.4 76 76 SE 9 15 30 1016 10 16.0934 0 0
6:15 am 06:15 Clear 37 3 31 -0.6 77 77 SE 9 15 30 1016 10 16.0934 0 0
6:35 am 06:35 Clear 37 2.7 31 -0.5 80 80 SE 9 15 30 1016 10 16.0934 0 0
6:55 am 06:55 Clear 38 3.1 32 0 80 80 SE 12 19 30 1016 10 16.0934 0 0
7:15 am 07:15 Sunny 37 3 32 -0.1 80 80 SE 9 15 30 1016 10 16.0934 0 0
7:35 am 07:35 Sunny 38 3.6 33 0.4 80 80 ESE 9 15 30 1016 10 16.0934 0 0
7:55 am 07:55 Sunny 41 4.8 34 0.9 76 76 ESE 8 13 30 1016 10 16.0934 0 0
8:15 am 08:15 Sunny 45 7 35 1.7 69 69 ESE 12 19 29.97 1015 10 16.0934 0 0
8:35 am 08:35 Sunny 49 9.2 36 2.1 61 61 SE 15 24 29.94 1014 10 16.0934 0 0
8:55 am 08:55 Sunny 51 10.4 37 2.5 58 58 SE 18 30 29.94 1014 10 16.0934 0 0
9:15 am 09:15 Sunny 52 11.1 37 2.8 57 57 SE 18 30 29.94 1014 10 16.0934 0 0
9:35 am 09:35 Sunny 54 12.4 38 3.6 55 55 SE 20 31 29.91 1013 10 16.0934 0 0
9:55 am 09:55 Sunny 55 12.9 39 3.7 54 54 SE 22 35 29.88 1012 10 16.0934 0 0
10:15 am 10:15 Partly Cloudy 56 13.3 39 3.9 53 53 SSE 21 33 29.88 1012 10 16.0934 0 0
10:35 am 10:35 Cloudy 56 13.5 39 4 53 53 SE 20 31 29.88 1012 10 16.0934 0 0
10:55 am 10:55 Mostly Cloudy 57 13.8 39 3.9 52 52 SSE 21 33 29.88 1012 10 16.0934 0 0
11:15 am 11:15 Cloudy 58 14.3 40 4.2 51 51 SE 20 31 29.88 1012 10 16.0934 0 0
11:35 am 11:35 Cloudy 59 14.8 39 4.1 49 49 SE 23 37 29.88 1012 10 16.0934 0 0
11:55 am 11:55 Cloudy 59 15.2 40 4.2 48 48 SE 18 30 29.88 1012 10 16.0934 0 0
12:15 pm 12:15 Mostly Cloudy 60 15.6 39 3.8 46 46 SSE 22 35 29.85 1011 10 16.0934 0 0
12:35 pm 12:35 Partly Cloudy 62 16.4 39 4 44 44 SE 23 37 29.85 1011 10 16.0934 0 0
12:55 pm 12:55 Partly Cloudy 63 17 40 4.6 44 44 SSE 24 39 29.83 1010 10 16.0934 0 0
1:15 pm 13:15 Sunny 63 17.1 40 4.5 43 43 SSE 25 41 29.83 1010 10 16.0934 0 0
1:35 pm 13:35 Partly Cloudy 63 17.4 41 4.9 44 44 SSE 21 33 29.83 1010 10 16.0934 0 0
1:55 pm 13:55 Partly Cloudy 64 17.6 40 4.7 43 43 SE 22 35 29.83 1010 10 16.0934 0 0
2:15 pm 14:15 Partly Cloudy 65 18.1 41 5.1 43 43 SE 23 37 29.77 1008 10 16.0934 0 0
2:35 pm 14:35 Partly Cloudy 64 17.5 42 5.4 45 45 SSE 22 35 29.77 1008 10 16.0934 0 0
2:55 pm 14:55 Partly Cloudy 63 17.2 42 5.7 47 47 SE 25 41 29.8 1009 10 16.0934 0 0
3:15 pm 15:15 Partly Cloudy 65 18.2 43 5.9 45 45 SE 24 39 29.77 1008 10 16.0934 0 0
3:35 pm 15:35 Partly Cloudy 63 17.3 43 5.9 47 47 SSE 22 35 29.8 1009 10 16.0934 0 0
3:55 pm 15:55 Partly Cloudy 64 18 44 6.4 47 47 SE 24 39 29.74 1007 10 16.0934 0 0
4:15 pm 16:15 Mostly Cloudy 63 17.2 44 6.6 50 50 SSE 18 30 29.77 1008 10 16.0934 0 0
4:35 pm 16:35 Partly Cloudy 63 17.4 44 6.8 50 50 SE 25 41 29.77 1008 10 16.0934 0 0
4:55 pm 16:55 Partly Cloudy 63 17.4 44 6.7 50 50 SE 25 41 29.77 1008 10 16.0934 0 0
5:15 pm 17:15 Partly Cloudy 62 16.6 45 7.1 54 54 SE 22 35 29.77 1008 10 16.0934 0 0
5:35 pm 17:35 Partly Cloudy 63 17 44 6.8 51 51 SSE 21 33 29.77 1008 10 16.0934 0 0
5:55 pm 17:55 Partly Cloudy 64 17.6 45 7.1 50 50 SSE 17 28 29.74 1007 10 16.0934 0 0
6:15 pm 18:15 Mostly Cloudy 63 17.3 45 7 51 51 SE 21 33 29.77 1008 10 16.0934 0 0
6:35 pm 18:35 Mostly Cloudy 61 16.1 44 6.8 54 54 SSE 20 31 29.77 1008 10 16.0934 0 0
6:55 pm 18:55 Partly Cloudy 60 15.7 44 6.8 56 56 SE 18 30 29.8 1009 10 16.0934 0 0
7:15 pm 19:15 Mostly Cloudy 60 15.7 45 7.3 58 58 SE 17 28 29.8 1009 10 16.0934 0 0
7:35 pm 19:35 Cloudy 60 15.3 45 7.4 60 60 SE 21 33 29.8 1009 10 16.0934 0 0
7:55 pm 19:55 Cloudy 59 15 46 7.5 61 61 SE 22 35 29.8 1009 10 16.0934 0 0
8:15 pm 20:15 Mostly Cloudy 57 14.1 46 7.5 65 65 ESE 17 28 29.83 1010 10 16.0934 0 0
8:35 pm 20:35 Partly Cloudy 56 13.4 46 7.5 68 68 ESE 15 24 29.83 1010 10 16.0934 0 0
8:55 pm 20:55 Clear with Nearby Thunderstorms 55 12.7 46 7.5 71 71 ESE 13 20 29.83 1010 10 16.0934 0 0
9:15 pm 21:15 Clear 55 12.8 46 7.7 71 71 ESE 17 28 29.85 1011 10 16.0934 0 0
9:35 pm 21:35 Partly Cloudy 54 12.3 46 7.5 73 73 SE 14 22 29.85 1011 10 16.0934 0 0
9:55 pm 21:55 Mostly Cloudy 54 12.3 46 7.7 74 74 SE 12 19 29.88 1012 10 16.0934 0 0
10:15 pm 22:15 Cloudy 55 13 46 8 72 72 SE 15 24 29.88 1012 10 16.0934 0 0
10:35 pm 22:35 Cloudy 55 13 46 8 72 72 SE 15 24 29.88 1012 10 16.0934 0 0
10:55 pm 22:55 Cloudy 55 13 47 8.1 72 72 ESE 15 24 29.88 1012 10 16.0934 0 0
11:15 pm 23:15 Cloudy 55 13 47 8.5 74 74 ESE 6 9 29.91 1013 10 16.0934 0 0
11:35 pm 23:35 Cloudy 55 13 48 8.7 75 75 E 7 11 29.91 1013 10 16.0934 0 0
11:55 pm 23:55 Cloudy 55 12.7 47 8.6 76 76 E 5 7 29.94 1014 10 16.0934 0 0

Powered by AerisWeather